Content
SEND FEEDBACK

Daily
Averages
Monthly
Summary
United States of America

BERKELEY, MISSOURI


Home > North America > United States > Missouri
Elevation: 564 feet     Latitude: 38 45N     Longitude: 090 22W

WEATHER
 
SELECT A DAY
Number of Records: 203,667;   Date Range: 1/1/95 - 9/18/14
 
SHARE

PRINT THIS DATA

[ ← Previous Day ]
WEATHER ALMANAC - JANUARY 30, 2013
[ Next Day → ]
[ °C ]   °F
Weather ElementAverageHighLow
Temperature41.7 °F54 °F (1:51 am)27 °F (11:51 pm)
Dewpoint34.2 °F51.8 °F (1:43 am)15.8 °F (10:51 pm)
Humidity75.2 %94 % (1:43 am)56 % (8:51 pm)
Barometer29.56 in29.95 in (11:51 pm)29.37 in (3:51 am)
Wind Speed18.4 mph29.9 mph (1:51 pm)
Wind Gust41.4 mph (1:51 pm)
Weather ElementAverage
Visibility9.1 mi
Wind DirectionWSW (253.2 °)

Weather ElementTotal
Precipitation0.21 in
Heating Degree Days24.5 (Base 65)
Averaged from 38 records on January 30, 2013
WEATHER CONDITIONS BREAKOUT
WIND DIRECTION BREAKOUT
WEATHER BY HOUR - JANUARY 30, 2013
[ °C ]   °F
Local TimeTemperatureDewpointHumidityBarometerVisibilityWind DirectionWind SpeedGust SpeedPrecipitationEventsConditions
1:43 AM53.6 °F51.8 °F94 %29.48 in9.0 miSSW (210°)11.5 mph0.03 inRainLight Rain
1:51 AM54.0 °F51.1 °F90 %29.48 in8.0 miSSW (200°)10.4 mph0.04 inRainLight Rain
2:49 AM53.6 °F50.0 °F88 %29.44 in10.0 miSSW (200°)5.8 mph0.02 inRainLight Rain
2:51 AM53.1 °F50.0 °F89 %29.43 in10.0 miSouth (190°)5.8 mph0.02 inRainLight Rain
3:51 AM53.1 °F50.0 °F89 %29.37 in10.0 miSSE (160°)10.4 mph0.00 inOvercast
4:14 AM53.6 °F50.0 °F88 %29.39 in10.0 miSouth (180°)13.8 mphOvercast
4:51 AM53.1 °F48.9 °F86 %29.39 in10.0 miSouth (170°)13.8 mphOvercast
5:12 AM53.6 °F48.2 °F82 %29.39 in10.0 miSouth (170°)13.8 mph21.9 mphMostly Cloudy
5:24 AM51.8 °F48.2 °F88 %29.39 in10.0 miSouth (180°)12.7 mphScattered Clouds
5:51 AM52.0 °F48.0 °F86 %29.39 in10.0 miSouth (190°)10.4 mphMostly Cloudy
6:48 AM53.6 °F48.2 °F82 %29.39 in10.0 miSSW (210°)12.7 mph21.9 mphOvercast
6:51 AM53.1 °F48.0 °F83 %29.38 in10.0 miSSW (210°)12.7 mph21.9 mphOvercast
7:03 AM51.8 °F46.4 °F82 %29.39 in10.0 miSSW (210°)11.5 mph21.9 mphOvercast
7:24 AM46.4 °F42.8 °F87 %29.42 in5.0 miWest (280°)26.5 mph35.7 mph0.05 inRainLight Rain
7:51 AM46.0 °F39.9 °F79 %29.43 in10.0 miWest (280°)18.4 mph29.9 mph0.05 inMostly Cloudy
8:02 AM44.6 °F39.2 °F81 %29.44 in10.0 miWest (280°)23.0 mph27.6 mphOvercast
8:14 AM44.6 °F39.2 °F81 %29.45 in10.0 miWest (260°)23.0 mph27.6 mphOvercast
8:51 AM45.0 °F37.0 °F74 %29.45 in10.0 miWest (280°)24.2 mph29.9 mphMostly Cloudy
9:51 AM44.1 °F35.1 °F71 %29.47 in10.0 miWest (270°)18.4 mph27.6 mph0.00 inMostly Cloudy
10:22 AM44.6 °F33.8 °F66 %29.47 in10.0 miWest (280°)24.2 mph31.1 mphMostly Cloudy
10:51 AM43.0 °F34.0 °F71 %29.48 in10.0 miWest (280°)24.2 mph32.2 mph0.00 inOvercast
11:51 AM39.0 °F33.1 °F79 %29.49 in7.0 miWNW (290°)24.2 mph34.5 mph0.00 inRainLight Rain
12:51 PM36.0 °F27.0 °F70 %29.54 in10.0 miWNW (300°)20.7 mph39.1 mph0.00 inOvercast
1:51 PM34.0 °F25.0 °F70 %29.57 in10.0 miWest (280°)29.9 mph41.4 mphOvercast
2:51 PM33.1 °F24.1 °F70 %29.61 in8.0 miWest (280°)23.0 mph38.0 mph0.00 inSnowLight Snow
3:21 PM33.8 °F24.8 °F70 %29.62 in9.0 miWNW (290°)21.9 mph31.1 mph0.00 inSnowLight Snow
3:51 PM32.0 °F21.2 °F64 %29.65 in9.0 miWNW (300°)19.6 mph35.7 mphSnowLight Snow
4:27 PM32.0 °F21.2 °F64 %29.66 in10.0 miWNW (290°)17.3 mph28.8 mph0.00 inOvercast
4:51 PM32.0 °F21.9 °F66 %29.69 in10.0 miWNW (300°)19.6 mph33.4 mph0.00 inOvercast
5:51 PM30.9 °F19.9 °F64 %29.73 in10.0 miNW (310°)24.2 mph35.7 mphOvercast
6:51 PM30.0 °F18.0 °F61 %29.78 in9.0 miWNW (300°)24.2 mph36.8 mph0.00 inSnowLight Snow
7:51 PM30.0 °F19.0 °F64 %29.82 in9.0 miWNW (290°)19.6 mph31.1 mph0.00 inSnowLight Snow
8:20 PM30.2 °F17.6 °F60 %29.82 in8.0 miWest (280°)21.9 mph29.9 mph0.00 inSnowLight Snow
8:51 PM30.0 °F16.0 °F56 %29.86 in8.0 miWest (280°)29.9 mph38.0 mph0.00 inSnowLight Snow
9:40 PM28.4 °F19.4 °F69 %29.87 in4.0 miWest (270°)23.0 mph31.1 mph0.00 inSnowLight Snow
9:51 PM28.0 °F19.0 °F69 %29.90 in7.0 miWest (280°)18.4 mph28.8 mph0.00 inSnowLight Snow
10:51 PM28.4 °F15.8 °F59 %29.89 in7.0 miWNW (290°)23.0 mph31.1 mphSnowLight Snow
11:51 PM27.0 °F17.1 °F66 %29.95 in7.0 miWNW (300°)12.7 mph23.0 mph0.00 inSnowLight Snow
Hourly data recorded from KSTL, located miles away from Berkeley, Missouri







STORIES FROM OUR PARTNERS